IRIDIUM 106 1 41917U 17003A 26237.44539763 .00000069 00000+0 17632-4 0 9991 2 41917 86.3915 59.5784 0002332 82.4882 277.6579 14.34218048503136 IRIDIUM 103 1 41918U 17003B 26237.01409956 .00000066 00000+0 16331-4 0 9997 2 41918 86.3915 59.6586 0002291 93.1850 266.9608 14.34217756503090 IRIDIUM 109 1 41919U 17003C 26237.50882500 .00000068 00000+0 17292-4 0 9991 2 41919 86.3916 59.5121 0002194 90.5831 269.5616 14.34217910503133 IRIDIUM 102 1 41920U 17003D 26237.47710957 .00000028 00000+0 28202-5 0 9995 2 41920 86.3916 59.4476 0002035 87.9426 272.2003 14.34217184503214 IRIDIUM 105 1 41921U 17003E 26237.36593905 .00000002 00000+0 -64994-5 0 9997 2 41921 86.3972 27.9320 0001961 98.5087 261.6331 14.34217110505052 IRIDIUM 104 1 41922U 17003F 26237.48980481 .00000069 00000+0 17587-4 0 9997 2 41922 86.3916 59.4857 0002167 97.6737 262.4705 14.34218729503203 IRIDIUM 114 1 41923U 17003G 26237.49613594 .00000085 00000+0 23393-4 0 9997 2 41923 86.3916 59.4661 0002219 92.3745 267.7705 14.34217302503187 IRIDIUM 108 1 41924U 17003H 26237.38488907 .00000115 00000+0 34005-4 0 9990 2 41924 86.3966 27.8097 0002095 92.4442 267.6994 14.34218183505024 IRIDIUM 112 1 41925U 17003J 26237.48345216 .00000168 00000+0 52785-4 0 9990 2 41925 86.3910 59.3102 0002128 91.7511 268.3928 14.34217613503207 IRIDIUM 111 1 41926U 17003K 26237.05215547 .00000070 00000+0 18002-4 0 9993 2 41926 86.3913 59.5630 0002200 89.2351 270.9097 14.34218153503121 IRIDIUM 113 1 42803U 17039A 26237.24142558 .00000019 00000+0 -12575-6 0 9994 2 42803 86.3956 293.3210 0002166 97.2360 262.9082 14.34217721481080 IRIDIUM 123 1 42804U 17039B 26237.28290507 .00000027 00000+0 24233-5 0 9998 2 42804 86.4007 324.7696 0002267 93.4270 266.7185 14.34217684479852 IRIDIUM 120 1 42805U 17039C 26237.23508316 .00000001 00000+0 -67150-5 0 9992 2 42805 86.3944 293.0970 0002173 90.6476 269.4968 14.34217508481079 IRIDIUM 115 1 42806U 17039D 26237.24141821 .00000284 00000+0 78411-4 0 9991 2 42806 86.4483 293.2329 0002512 92.1768 267.9720 14.43280242484221 IRIDIUM 118 1 42807U 17039E 26237.52392338 .00000006 00000+0 -50863-5 0 9999 2 42807 86.4005 324.6666 0002108 95.5640 264.5796 14.34217603479885 IRIDIUM 117 1 42808U 17039F 26237.54295148 -.00000006 00000+0 -91157-5 0 9995 2 42808 86.4005 324.6157 0002195 94.5319 265.6127 14.34217387479912 IRIDIUM 126 1 42809U 17039G 26237.28924756 .00000013 00000+0 -23584-5 0 9997 2 42809 86.4009 324.7740 0002216 97.9904 262.1543 14.34217584479853 IRIDIUM 124 1 42810U 17039H 26237.45255860 .00000149 00000+0 38258-4 0 9993 2 42810 86.4434 261.3893 0002427 92.1322 268.0157 14.43278490485101 IRIDIUM 128 1 42811U 17039J 26237.34975271 .00000218 00000+0 70876-4 0 9996 2 42811 86.4019 356.2399 0002187 90.9446 269.2001 14.34217867479893 IRIDIUM 121 1 42812U 17039K 26237.51758076 .00000001 00000+0 -65975-5 0 9994 2 42812 86.4007 324.7067 0002094 93.8365 266.3070 14.34217495479769 IRIDIUM 133 1 42955U 17061A 26237.38146505 .00000047 00000+0 95663-5 0 9996 2 42955 86.4020 356.3457 0002184 92.4958 267.6488 14.34218293464699 IRIDIUM 100 1 42956U 17061B 26237.37512388 .00000021 00000+0 35416-6 0 9995 2 42956 86.4014 356.2657 0002076 93.5117 266.6316 14.34217644464691 IRIDIUM 122 1 42957U 17061C 26237.34341117 .00000012 00000+0 -27984-5 0 9994 2 42957 86.4017 356.2791 0002252 94.9712 265.1741 14.34217728464695 IRIDIUM 129 1 42958U 17061D 26237.36878091 .00000064 00000+0 15863-4 0 9991 2 42958 86.4020 356.3363 0002100 98.9333 261.2101 14.34217679464716 IRIDIUM 119 1 42959U 17061E 26237.33706876 -.00000015 00000+0 -12496-4 0 9997 2 42959 86.4016 356.3459 0002151 96.3494 263.7947 14.34217401464723 IRIDIUM 107 1 42960U 17061F 26237.35609686 .00000021 00000+0 32669-6 0 9993 2 42960 86.4019 356.3593 0002432 92.5438 267.6037 14.34217742464737 IRIDIUM 132 1 42961U 17061G 26237.36243644 .00000193 00000+0 61806-4 0 9996 2 42961 86.4018 356.3357 0002179 94.9209 265.2236 14.34217606464739 IRIDIUM 136 1 42962U 17061H 26237.32438260 .00000166 00000+0 52252-4 0 9998 2 42962 86.4018 356.3585 0002151 93.0759 267.0682 14.34217972464745 IRIDIUM 139 1 42963U 17061J 26237.33072580 .00000024 00000+0 14999-5 0 9999 2 42963 86.4021 356.4188 0002234 92.2075 267.9377 14.34217799464752 IRIDIUM 125 1 42964U 17061K 26237.38780992 .00000007 00000+0 -43929-5 0 9995 2 42964 86.4018 356.4576 0002506 100.6189 259.5289 14.34217589464770 IRIDIUM 135 1 43070U 17083A 26237.22239823 .00000028 00000+0 28877-5 0 9990 2 43070 86.3952 293.1614 0002288 94.5360 265.6097 14.34217625454049 IRIDIUM 138 1 43071U 17083B 26237.24776887 .00000026 00000+0 23474-5 0 9995 2 43071 86.3966 292.8570 0002330 97.1515 262.9945 14.34217627454034 IRIDIUM 116 1 43072U 17083C 26237.42536118 .00000009 00000+0 -38135-5 0 9999 2 43072 86.3948 293.0613 0002184 86.9914 273.1532 14.34217497454099 IRIDIUM 130 1 43073U 17083D 26237.18434288 .00000042 00000+0 80254-5 0 9993 2 43073 86.3960 293.4446 0002423 89.5271 270.6202 14.34217791454007 IRIDIUM 151 1 43074U 17083E 26237.22874102 .00000010 00000+0 -34822-5 0 9998 2 43074 86.3951 293.2030 0002157 92.5260 267.6183 14.34217494454038 IRIDIUM 134 1 43075U 17083F 26237.40633332 .00000045 00000+0 91702-5 0 9994 2 43075 86.3954 293.1382 0002322 92.6511 267.4950 14.34217781454023 IRIDIUM 137 1 43076U 17083G 26237.41901809 -.00000009 00000+0 -10137-4 0 9997 2 43076 86.3953 293.2265 0001898 87.1945 272.9468 14.34217385454093 IRIDIUM 141 1 43077U 17083H 26237.20337015 .00000036 00000+0 58059-5 0 9991 2 43077 86.3950 293.1436 0002302 95.3942 264.7517 14.34217759454065 IRIDIUM 153 1 43078U 17083J 26237.50439125 -.00000002 00000+0 -76236-5 0 9992 2 43078 86.3913 261.4824 0002261 94.9532 265.1922 14.34217468455218 IRIDIUM 131 1 43079U 17083K 26237.39999045 .00000150 00000+0 46670-4 0 9992 2 43079 86.3958 293.2522 0002225 95.3740 264.7709 14.34218186454026 IRIDIUM 144 1 43249U 18030A 26237.30141970 .00000146 00000+0 45092-4 0 9993 2 43249 86.3910 261.4949 0002301 88.9928 271.1531 14.34216925440045 IRIDIUM 149 1 43250U 18030B 26237.30777095 .00000022 00000+0 77987-6 0 9991 2 43250 86.3911 261.4586 0002196 93.1372 267.0075 14.34217603440061 IRIDIUM 157 1 43251U 18030C 26237.46633558 -.00000024 00000+0 -15772-4 0 9990 2 43251 86.3912 261.4468 0002185 91.6554 268.4892 14.34217393440063 IRIDIUM 140 1 43252U 18030D 26237.13652071 -.00000027 00000+0 -16645-4 0 9999 2 43252 86.3912 261.5974 0002227 91.5755 268.5696 14.34217330440071 IRIDIUM 145 1 43253U 18030E 26237.33314115 -.00000001 00000+0 -72807-5 0 9991 2 43253 86.3911 261.4870 0002232 84.2779 275.8672 14.34217556440037 IRIDIUM 146 1 43254U 18030F 26237.31411278 -.00000011 00000+0 -11089-4 0 9993 2 43254 86.3913 261.5070 0002216 88.8626 271.2824 14.34217461440041 IRIDIUM 148 1 43255U 18030G 26237.14286288 .00000002 00000+0 -64168-5 0 9992 2 43255 86.3915 261.6230 0002072 92.0833 268.0600 14.34217508440059 IRIDIUM 142 1 43256U 18030H 26237.45999319 .00000010 00000+0 -35393-5 0 9990 2 43256 86.3910 261.3767 0002160 87.3136 272.8307 14.34217560440064 IRIDIUM 150 1 43257U 18030J 26237.14920660 .00000046 00000+0 95086-5 0 9993 2 43257 86.3914 261.6255 0002346 90.3819 269.7645 14.34217722440040 IRIDIUM 143 1 43258U 18030K 26237.47903118 .00000150 00000+0 46356-4 0 9990 2 43258 86.3915 261.5827 0002358 88.9375 271.2091 14.34220497440023 IRIDIUM 161 1 43478U 18047C 26237.43050118 .00000086 00000+0 19687-4 0 9996 2 43478 86.4436 59.4949 0002090 93.0826 267.0614 14.43280613435121 IRIDIUM 152 1 43479U 18047D 26237.03312896 .00000079 00000+0 20974-4 0 9990 2 43479 86.3912 59.5233 0002152 90.6176 269.5266 14.34217397432358 IRIDIUM 147 1 43480U 18047E 26237.52784949 .00000053 00000+0 11909-4 0 9998 2 43480 86.3912 59.3225 0002152 86.4514 273.6928 14.34218109432429 IRIDIUM 110 1 43481U 18047F 26237.46442713 .00000066 00000+0 16641-4 0 9994 2 43481 86.3915 59.4428 0002060 96.7455 263.3976 14.34217734432405 IRIDIUM 162 1 43482U 18047G 26237.49352816 .00000092 00000+0 21452-4 0 9997 2 43482 86.4434 59.3588 0002250 88.8320 271.3139 14.43280464435125 IRIDIUM 160 1 43569U 18061A 26237.41026000 .00000026 00000+0 22522-5 0 9991 2 43569 86.3968 27.8384 0002105 92.2549 267.8888 14.34217713423290 IRIDIUM 166 1 43570U 18061B 26237.36586156 .00000031 00000+0 38824-5 0 9998 2 43570 86.3968 27.8070 0002059 89.9944 270.1488 14.34217771423314 IRIDIUM 158 1 43571U 18061C 26237.40391784 -.00000028 00000+0 -16957-4 0 9995 2 43571 86.3968 27.8013 0002106 92.8650 267.2786 14.34217241423288 IRIDIUM 165 1 43572U 18061D 26237.35951953 .00000151 00000+0 46978-4 0 9991 2 43572 86.3973 27.8671 0002165 89.9709 270.1735 14.34218079423302 IRIDIUM 155 1 43573U 18061E 26237.39122642 .00000192 00000+0 61406-4 0 9999 2 43573 86.3967 27.7196 0002234 91.1860 268.9591 14.34220185423279 IRIDIUM 154 1 43574U 18061F 26237.44197083 .00000201 00000+0 64614-4 0 9992 2 43574 86.3971 27.8353 0002100 88.6481 271.4955 14.34217237423337 IRIDIUM 163 1 43575U 18061G 26237.42294442 .00000025 00000+0 17856-5 0 9999 2 43575 86.3967 27.7563 0002157 93.4940 266.6502 14.34216788423302 IRIDIUM 156 1 43576U 18061H 26237.39757588 .00000189 00000+0 60553-4 0 9993 2 43576 86.3966 27.7749 0002261 91.5730 268.5724 14.34219655423291 IRIDIUM 164 1 43577U 18061J 26237.37854707 -.00000003 00000+0 -81050-5 0 9996 2 43577 86.3967 27.8240 0002006 88.9248 271.2177 14.34217470423332 IRIDIUM 159 1 43578U 18061K 26237.41660269 .00000137 00000+0 41885-4 0 9997 2 43578 86.3967 27.7431 0002143 94.6189 265.5252 14.34217864423308 IRIDIUM 180 1 43922U 19002A 26237.34634545 .00000189 00000+0 60455-4 0 9997 2 43922 86.4011 324.7031 0002183 95.5052 264.6393 14.34218476398904 IRIDIUM 176 1 43923U 19002B 26237.28214662 .00000616 00000+0 93849-4 0 9993 2 43923 86.6132 324.6637 0002383 92.5479 267.6011 14.72253190409417 IRIDIUM 168 1 43924U 19002C 26237.33998797 .00000027 00000+0 25079-5 0 9995 2 43924 86.4014 324.7849 0002221 95.7000 264.4449 14.34217754398889 IRIDIUM 173 1 43925U 19002D 26237.53660834 .00000013 00000+0 -24334-5 0 9995 2 43925 86.4010 324.5886 0002281 95.0321 265.1135 14.34217681398890 IRIDIUM 169 1 43926U 19002E 26237.39068652 .00000224 00000+0 66754-4 0 9994 2 43926 86.4274 356.2663 0002709 93.3947 266.7561 14.38612527400175 IRIDIUM 172 1 43927U 19002F 26237.53026584 .00000022 00000+0 82915-6 0 9994 2 43927 86.4009 324.5995 0002212 95.8173 264.3274 14.34217687398901 IRIDIUM 175 1 43928U 19002G 26237.10473080 .00000189 00000+0 49849-4 0 9996 2 43928 86.4465 261.7051 0003793 33.1984 326.9454 14.43642068408927 IRIDIUM 171 1 43929U 19002H 26237.30193150 .00000122 00000+0 36656-4 0 9995 2 43929 86.4019 325.0086 0002255 93.0337 267.1117 14.34218295398868 IRIDIUM 170 1 43930U 19002J 26237.22035756 .00000541 00000+0 81814-4 0 9996 2 43930 86.6130 324.6913 0002346 96.1449 264.0035 14.72253624409415 IRIDIUM 167 1 43931U 19002K 26237.29558979 -.00000024 00000+0 -15800-4 0 9991 2 43931 86.4005 324.7200 0002254 88.2080 271.9373 14.34216951398864 IRIDIUM 181 1 56726U 23068S 26237.36652669 .00000256 00000+0 70155-4 0 9992 2 56726 86.4505 27.8571 0002020 91.2952 268.8480 14.43309421172410 IRIDIUM 177 1 56727U 23068T 26237.41936640 .00000771 00000+0 98426-4 0 9996 2 56727 86.1958 295.9297 0002536 95.9045 264.2465 14.80037395176606 IRIDIUM 174 1 56728U 23068U 26237.47987375 .00000669 00000+0 10224-3 0 9999 2 56728 86.6138 324.7373 0002615 99.9859 260.1654 14.72252583176214 IRIDIUM 178 1 56729U 23068V 26237.34086341 .00000892 00000+0 11444-3 0 9992 2 56729 86.6587 356.4723 0002480 93.3643 266.7862 14.80045587176590 IRIDIUM 179 1 56730U 23068W 26237.33548331 .00000873 00000+0 11189-3 0 9990 2 56730 86.6816 5.6539 0002489 90.1347 270.0160 14.80050302176590